Nome, AK

5:50 PM AKDT on May 24, 2017 (GMT -0800)
Nome

Weather History for PAOM - November, 2014

Change the Weather History Date:

Friday, November 28, 2014

  Actual Average Record
Temperature  
Mean Temperature 27 °F 13 °F  
Max Temperature 29 °F 20 °F 39 °F (1983)
Min Temperature 24 °F 7 °F -34 °F (1948)
Degree Days  
Heating Degree Days 38 52  
Month to date heating degree days 1083 1339  
Since 1 July heating degree days 3473 3989  
Cooling Degree Days 0 0  
Month to date cooling degree days 0 0  
Year to date cooling degree days 3 3  
Moisture  
Dew Point 26 °F    
Average Humidity 0    
Maximum Humidity 0    
Minimum Humidity 0    
Precipitation  
Precipitation 0.15 in 0.03 in 0.38 in (1983)
Month to date precipitation 1.16 1.15  
Year to date precipitation 13.39 15.66  
Snow  
Snow 1.90 in 0.40 in 3.00 in (1919)
Month to date snowfall 9.9 11.3  
Since 1 July snowfall 14.8 16.5  
Since 1 September snowfall 14.8 16.5  
Snow Depth 7.00 in    
Sea Level Pressure  
Sea Level Pressure 29.97 in    
Wind  
Wind Speed 15 mph (East)    
Max Wind Speed 22 mph    
Max Gust Speed 27 mph    
Visibility 2 miles    
Events Fog , Snow    
T = Trace of Precipitation, MM = Missing Value Source: NWS Daily Summary

Daily Weather History Graph

Daily Weather History Graph

Search for Another Location

Airport or City:

Trip Planner

Search our weather history database for the weather conditions in past years. The results will help you decide how hot, cold, wet, or windy it might be!

Date:

Astronomy

Nov. 28, 2014 Rise Set
Actual Time 11:16 AM AKST 4:22 PM AKST
Civil Twilight 10:06 AM AKST 5:32 PM AKST
Nautical Twilight 9:00 AM AKST 6:38 PM AKST
Astronomical Twilight 8:01 AM AKST 7:37 PM AKST
Moon 2:43 PM AKST (11/28) No Moon Set
Length of Visible Light 7h 26m
Length of Day
5h 05m
Waxing Crescent, 44% of the Moon is Illuminated
Nov 28
Waxing Crescent
Nov 29
First Quarter
Dec 6
Full
Dec 14
Last Quarter
Dec 21
New

Hourly Weather History & Observations

Time (AKST) Temp. Windchill Dew Point Humidity Pressure Visibility Wind Dir Wind Speed Gust Speed Precip Events Conditions
12:39 AM 24.1 °F 9.8 °F 23.0 °F 96% 29.94 in 1.8 mi East 19.6 mph - 0.00 in Snow Light Snow
12:53 AM 25.0 °F 11.3 °F 24.1 °F 96% 29.94 in 1.0 mi East 18.4 mph - 0.00 in Snow Light Snow
1:01 AM 25.0 °F 11.7 °F 24.1 °F 96% 29.94 in 1.0 mi East 17.3 mph 25.3 mph 0.00 in Snow Light Snow
1:10 AM 25.0 °F 11.3 °F 24.1 °F 96% 29.94 in 1.2 mi East 18.4 mph 26.5 mph 0.00 in Snow Light Snow
1:37 AM 25.0 °F 12.2 °F 24.1 °F 96% 29.94 in 3.0 mi East 16.1 mph - 0.00 in Snow Light Snow
1:53 AM 25.0 °F 12.2 °F 24.1 °F 96% 29.94 in 4.0 mi East 16.1 mph - 0.00 in Snow Light Snow
2:05 AM 25.0 °F 11.7 °F 24.1 °F 96% 29.94 in 2.0 mi East 17.3 mph - 0.00 in Snow Light Snow
2:12 AM 25.0 °F 12.2 °F 24.1 °F 96% 29.94 in 1.8 mi East 16.1 mph - 0.00 in Snow Light Snow
2:21 AM 25.0 °F 12.2 °F 24.1 °F 96% 29.94 in 2.5 mi East 16.1 mph - 0.00 in Snow Light Snow
2:37 AM 25.0 °F 10.9 °F 24.1 °F 96% 29.94 in 1.0 mi East 19.6 mph - 0.00 in Snow Light Snow
2:53 AM 25.0 °F 11.7 °F 24.1 °F 96% 29.95 in 1.2 mi East 17.3 mph - 0.00 in Snow Light Snow
3:00 AM 25.0 °F 11.7 °F 24.1 °F 96% 29.94 in 1.5 mi East 17.3 mph - 0.00 in Snow Light Snow
3:04 AM 25.0 °F 12.2 °F 24.1 °F 96% 29.94 in 2.0 mi East 16.1 mph - 0.00 in Snow Light Snow
3:14 AM 25.0 °F 10.9 °F 24.1 °F 96% 29.95 in 4.0 mi East 19.6 mph - 0.00 in Snow Blowing Snow
3:42 AM 25.0 °F 11.3 °F 24.1 °F 96% 29.94 in 1.8 mi East 18.4 mph - 0.00 in Snow Light Snow
3:53 AM 25.0 °F 10.2 °F 24.1 °F 96% 29.94 in 1.2 mi East 21.9 mph - 0.00 in Snow Light Snow
4:42 AM 25.0 °F 11.7 °F 24.1 °F 96% 29.94 in 1.5 mi East 17.3 mph - 0.01 in Snow Light Snow
4:51 AM 24.8 °F 11.5 °F 24.8 °F 100% 29.94 in 2.5 mi East 17.3 mph - 0.01 in Snow Light Snow
4:53 AM 25.0 °F 11.7 °F 24.1 °F 96% 29.94 in 2.5 mi East 17.3 mph - 0.01 in Snow Light Snow
5:01 AM 25.0 °F 10.9 °F 24.1 °F 96% 29.94 in 1.8 mi East 19.6 mph - 0.00 in Snow Light Snow
5:10 AM 25.0 °F 11.7 °F 24.1 °F 96% 29.93 in 2.0 mi East 17.3 mph - 0.00 in Snow Light Snow
5:13 AM 25.0 °F 11.7 °F 25.0 °F 100% 29.94 in 3.0 mi East 17.3 mph - 0.00 in Snow Light Snow
5:23 AM 26.1 °F 12.7 °F 25.0 °F 96% 29.94 in 3.0 mi East 18.4 mph - 0.00 in Snow Blowing Snow
5:34 AM 26.1 °F 12.3 °F 25.0 °F 96% 29.94 in 1.8 mi East 19.6 mph - 0.00 in Snow Light Snow
5:51 AM 26.6 °F 13.4 °F 24.8 °F 93% 29.94 in 1.8 mi East 18.4 mph - 0.00 in Snow Blowing Snow
5:53 AM 26.1 °F 12.7 °F 25.0 °F 96% 29.94 in 1.8 mi East 18.4 mph - 0.00 in Snow Blowing Snow
6:30 AM 26.1 °F 13.1 °F 25.0 °F 96% 29.94 in 3.0 mi East 17.3 mph - 0.01 in Snow Blowing Snow
6:48 AM 26.6 °F 12.7 °F 26.6 °F 100% 29.95 in 2.5 mi East 20.7 mph - 0.01 in Snow Light Snow
6:53 AM 27.0 °F 13.9 °F 26.1 °F 96% 29.95 in 3.0 mi East 18.4 mph - 0.01 in Snow Light Snow
7:16 AM 27.0 °F 14.7 °F 26.1 °F 96% 29.95 in 1.8 mi East 16.1 mph - 0.01 in Snow Light Snow
7:28 AM 27.0 °F 14.7 °F 26.1 °F 96% 29.95 in 3.0 mi East 16.1 mph - 0.01 in Snow Light Snow
7:53 AM 27.0 °F 15.2 °F 26.1 °F 96% 29.95 in 6.0 mi East 15.0 mph - 0.02 in Snow Light Snow
8:53 AM 28.0 °F 16.1 °F 26.1 °F 92% 29.96 in 7.0 mi East 16.1 mph - 0.00 in Snow Light Snow
9:48 AM 28.4 °F 15.8 °F 26.6 °F 93% 29.96 in 1.8 mi East 18.4 mph - 0.01 in Snow Light Snow
9:53 AM 28.0 °F 15.7 °F 27.0 °F 96% 29.96 in 3.0 mi East 17.3 mph - 0.01 in Snow Light Snow
10:18 AM 28.0 °F 15.3 °F 27.0 °F 96% 29.96 in 1.5 mi East 18.4 mph - 0.01 in Snow Light Snow
10:23 AM 28.0 °F 16.5 °F 27.0 °F 96% 29.96 in 0.8 mi East 15.0 mph - 0.01 in Snow Light Snow
10:26 AM 28.0 °F 16.5 °F 27.0 °F 96% 29.97 in 0.5 mi East 15.0 mph - 0.02 in Fog , Snow Snow
10:35 AM 28.0 °F 16.5 °F 27.0 °F 96% 29.97 in 0.8 mi East 15.0 mph - 0.04 in Snow Light Snow
10:38 AM 28.0 °F 17.0 °F 27.0 °F 96% 29.97 in 1.0 mi East 13.8 mph - 0.04 in Snow Light Snow
10:53 AM 27.0 °F 15.2 °F 27.0 °F 100% 29.98 in 2.5 mi East 15.0 mph - 0.05 in Snow Light Snow
11:42 AM 27.0 °F 14.7 °F 27.0 °F 100% 29.98 in 4.0 mi East 16.1 mph - 0.02 in Snow Light Snow
11:53 AM 28.0 °F 16.5 °F 27.0 °F 96% 29.98 in 9.0 mi East 15.0 mph - 0.02 in   Overcast
12:24 PM 28.0 °F 17.0 °F 27.0 °F 96% 29.99 in 10.0 mi East 13.8 mph - N/A   Overcast
12:51 PM 28.4 °F 17.0 °F 26.6 °F 93% 29.99 in 4.0 mi East 15.0 mph - 0.00 in Snow Light Snow
12:53 PM 28.0 °F 17.0 °F 27.0 °F 96% 29.99 in 3.0 mi East 13.8 mph - 0.00 in Snow Light Snow
1:28 PM 28.0 °F 17.0 °F 27.0 °F 96% 29.99 in 8.0 mi East 13.8 mph - 0.00 in Snow Light Snow
1:32 PM 28.0 °F 17.0 °F 27.0 °F 96% 29.99 in 0.8 mi East 13.8 mph - 0.00 in Snow Light Snow
1:36 PM 28.0 °F 17.0 °F 27.0 °F 96% 29.99 in 1.0 mi East 13.8 mph - 0.00 in Snow Light Snow
1:39 PM 28.0 °F 16.5 °F 27.0 °F 96% 29.99 in 0.5 mi East 15.0 mph - 0.01 in Fog , Snow Snow
1:53 PM 27.0 °F 15.6 °F 27.0 °F 100% 29.99 in 0.5 mi East 13.8 mph - 0.03 in Fog , Snow Snow
1:57 PM 27.0 °F 16.1 °F 27.0 °F 100% 29.99 in 1.0 mi East 12.7 mph - 0.00 in Snow Light Snow
1:59 PM 27.0 °F 15.6 °F 27.0 °F 100% 29.99 in 2.0 mi East 13.8 mph - 0.00 in Snow Light Snow
2:05 PM 27.0 °F 15.2 °F 27.0 °F 100% 29.99 in 5.0 mi East 15.0 mph - 0.00 in Snow Light Snow
2:16 PM 27.0 °F 14.7 °F 27.0 °F 100% 29.99 in 2.5 mi East 16.1 mph - 0.00 in Snow Light Snow
2:25 PM 28.0 °F 16.1 °F 27.0 °F 96% 29.98 in 4.0 mi East 16.1 mph - 0.00 in   Overcast
2:53 PM 28.0 °F 16.5 °F 27.0 °F 96% 29.99 in 2.5 mi East 15.0 mph - 0.00 in Snow Light Snow
3:06 PM 28.0 °F 17.0 °F 27.0 °F 96% 29.99 in 4.0 mi East 13.8 mph - 0.00 in Snow Light Snow
3:23 PM 28.0 °F 17.0 °F 28.0 °F 100% 29.99 in 4.0 mi East 13.8 mph - 0.00 in Snow Light Snow
3:53 PM 28.0 °F 17.0 °F 28.0 °F 100% 29.99 in 8.0 mi East 13.8 mph - 0.00 in   Overcast
4:38 PM 28.0 °F 16.5 °F 28.0 °F 100% 29.99 in 3.0 mi East 15.0 mph - N/A   Overcast
4:53 PM 28.9 °F 17.7 °F 28.9 °F 100% 29.99 in 3.0 mi East 15.0 mph - N/A   Overcast
5:51 PM 28.4 °F 18.0 °F 28.4 °F 100% 29.98 in 1.2 mi ESE 12.7 mph - N/A   Overcast
5:53 PM 28.9 °F 19.2 °F 28.9 °F 100% 29.98 in 1.2 mi ESE 11.5 mph - N/A   Overcast
6:11 PM 28.9 °F 18.6 °F 28.9 °F 100% 29.98 in 2.0 mi ESE 12.7 mph - N/A   Overcast
6:28 PM 28.9 °F 19.8 °F 28.9 °F 100% 29.98 in 1.0 mi ESE 10.4 mph - N/A   Overcast
6:53 PM 28.9 °F 19.2 °F 28.9 °F 100% 29.99 in 1.0 mi ESE 11.5 mph - N/A   Mist
7:17 PM 28.9 °F 19.2 °F 28.9 °F 100% 29.99 in 0.5 mi ESE 11.5 mph - N/A Fog Light Freezing Fog
7:53 PM 28.9 °F 19.8 °F 28.9 °F 100% 29.99 in 0.5 mi ESE 10.4 mph - N/A Fog Light Freezing Fog
8:51 PM 28.4 °F 18.5 °F 28.4 °F 100% 29.99 in 0.8 mi East 11.5 mph - N/A   Mist
8:53 PM 28.9 °F 18.6 °F 28.9 °F 100% 29.99 in 0.8 mi East 12.7 mph - N/A   Mist
9:37 PM 28.9 °F 18.6 °F 28.9 °F 100% 29.97 in 0.5 mi East 12.7 mph - N/A Fog Light Freezing Fog
9:53 PM 28.9 °F 18.2 °F 28.9 °F 100% 29.98 in 0.5 mi ESE 13.8 mph - N/A Fog Light Freezing Fog
10:07 PM 28.9 °F 18.6 °F 28.9 °F 100% 29.98 in 0.8 mi ESE 12.7 mph - N/A   Mist
10:28 PM 28.9 °F 19.2 °F 28.9 °F 100% 29.98 in 0.5 mi ESE 11.5 mph - N/A Fog Light Freezing Fog
10:53 PM 28.9 °F 18.6 °F 28.9 °F 100% 29.99 in 0.5 mi East 12.7 mph - N/A Fog Light Freezing Fog
11:41 PM 28.0 °F 17.0 °F 28.0 °F 100% 29.99 in 1.0 mi ESE 13.8 mph - N/A   Mist
11:51 PM 28.4 °F 17.5 °F 28.4 °F 100% 29.98 in 1.0 mi ESE 13.8 mph - N/A   Mist
11:53 PM 28.0 °F 17.0 °F 28.0 °F 100% 29.99 in 1.0 mi ESE 13.8 mph - N/A   Mist